Flag for Switzerland Weather past 2 weeks in Schwyz, Schwyz, Switzerland

Now
74 °F

Partly sunny.


Feels Like: 77 °F
Forecast: 64 / 90 °F
Wind: 5 mph from South

Location: Altdorf

Current Time: Aug 28, 2015 at 9:35:58 PM

Latest Report: Aug 28, 2015 at 8:00 PM


Visibility: 16 mi

Pressure: 30.06 "Hg (28.33 "Hg at 515m altitude)

Humidity: 62%

Dew point: 60 °F

Location of SchwyzLocation

Historic Weather in Schwyz — Graph

°F

Schwyz temperature yesterday

Maximum temperature yesterday: 80 °F (at 5:00 PM)
Minimum temperature yesterday: 57 °F (at 2:00 AM)
Average temperature yesterday: 69 °F

Past Weeks' High & Low Weather Summary

 TemperatureHumidityPressure
High84 °F (Aug 13, 8:00 PM)99% (Aug 19, 2:00 AM)30.28 "Hg (Aug 19, 2:00 AM)
Low50 °F (Aug 26, 7:00 AM)32% (Aug 13, 8:00 PM)29.67 "Hg (Aug 24, 8:00 AM)
Average64 °F77%29.98 "Hg
* Reported Aug 13 7:00 PM — Aug 28 7:00 PM, Schwyz, Weather by CustomWeather, © 2015

Note: Actual official high and low records may vary slightly from our data, if they occured in-between our weather recording intervals... More about our weather records

Advertising

Schwyz weather history for previous 24 hours

 ConditionsComfort  
Time TempWeatherWind HumidityBarometerVisibility
7:00 PM
Fri, Aug 28
76 °FMild.2 mph58%30.04 "HgN/A
6:00 PM81 °FWarm.1 mph46%30.02 "HgN/A
5:00 PM84 °FScattered clouds.3 mph40%30.01 "Hg19 mi
4:00 PM84 °FWarm.5 mph43%30.01 "HgN/A
2:00 PM82 °FScattered clouds.6 mph46%30.02 "Hg19 mi
1:00 PM79 °FWarm.6 mph52%30.03 "HgN/A
12:00 PM77 °FWarm.6 mph54%30.04 "HgN/A
11:00 AM73 °FScattered clouds.8 mph61%30.05 "Hg17 mi
10:00 AM73 °FMild.2 mph60%30.04 "HgN/A
9:00 AM68 °FMild.2 mph77%30.05 "HgN/A
8:00 AM64 °FScattered clouds.1 mph78%30.05 "Hg16 mi
7:00 AM64 °FMild.3 mph80%30.04 "HgN/A
5:00 AM69 °FPassing clouds.2 mph54%29.98 "Hg16 mi
4:00 AM71 °FMild.6 mph50%29.96 "HgN/A
3:00 AM72 °FMild.9 mph47%29.95 "HgN/A
2:00 AM73 °FPassing clouds.7 mph47%29.95 "Hg14 mi
1:00 AM77 °FMild.8 mph40%29.93 "HgN/A
10:00 PM
Thu, Aug 27
78 °FPleasantly warm.13 mph40%29.90 "HgN/A
9:00 PM69 °FMild.3 mph70%29.92 "HgN/A
Weather by CustomWeather, © 2015

See weather overviewHow to use our weather pages